• In Portugal
  • List of Countries
  • For 7 days
  • Water Temperature
  • Satellite Maps
  • Weather Map
  • Weather Widgets
  • user-avatar
    Login

    Hourly Weather Sharan

    Today, 24 January, Wednesday

    Time Temperature Precipitation Wind Pressure Humidity
    00:00 +1°C° 0 mm 1 mps 581 mmHg 54%
    01:00 0°C° 0 mm 1 mps 580 mmHg 58%
    02:00 0°C° 0 mm 1 mps 580 mmHg 62%
    03:00 0°C° 0 mm 1 mps 580 mmHg 64%
    04:00 0°C° 0 mm 1 mps 580 mmHg 66%
    05:00 -1°C° 0 mm 1 mps 580 mmHg 68%
    06:00 -1°C° 0 mm 1 mps 580 mmHg 67%
    07:00 -1°C° 0 mm 1 mps 580 mmHg 67%
    08:00 -1°C° 0 mm 1 mps 580 mmHg 67%
    09:00 +1°C° 0 mm 1 mps 581 mmHg 57%
    10:00 +3°C° 0 mm 1 mps 582 mmHg 48%
    11:00 +5°C° 0 mm 1 mps 583 mmHg 39%
    12:00 +6°C° 0 mm 1 mps 583 mmHg 35%
    13:00 +6°C° 0 mm 2 mps 583 mmHg 31%
    14:00 +7°C° 0 mm 2 mps 583 mmHg 27%
    15:00 +7°C° 0 mm 2 mps 583 mmHg 28%
    16:00 +7°C° 0 mm 2 mps 583 mmHg 29%
    17:00 +6°C° 0 mm 2 mps 583 mmHg 30%
    18:00 +5°C° 0 mm 2 mps 583 mmHg 33%
    19:00 +5°C° 0 mm 1 mps 583 mmHg 37%
    20:00 +4°C° 0 mm 1 mps 583 mmHg 41%
    21:00 +3°C° 0 mm 1 mps 583 mmHg 42%
    22:00 +3°C° 0 mm 1 mps 583 mmHg 43%
    23:00 +2°C° 0 mm 1 mps 582 mmHg 44%

    Tomorrow, 25 January, Thursday

    Time Temperature Precipitation Wind Pressure Humidity
    00:00 +2°C° 0 mm 1 mps 582 mmHg 45%
    01:00 +1°C° 0 mm 1 mps 582 mmHg 46%
    02:00 +1°C° 0 mm 1 mps 582 mmHg 47%
    03:00 0°C° 0 mm 1 mps 581 mmHg 48%
    04:00 0°C° 0 mm 1 mps 581 mmHg 49%
    05:00 0°C° 0 mm 1 mps 581 mmHg 50%
    06:00 0°C° 0 mm 1 mps 581 mmHg 49%
    07:00 0°C° 0 mm 1 mps 581 mmHg 48%
    08:00 0°C° 0 mm 1 mps 582 mmHg 48%
    09:00 +1°C° 0 mm 2 mps 582 mmHg 41%
    10:00 +3°C° 0 mm 2 mps 583 mmHg 34%
    11:00 +4°C° 0 mm 2 mps 584 mmHg 27%
    12:00 +4°C° 0 mm 3 mps 584 mmHg 25%
    13:00 +5°C° 0 mm 3 mps 583 mmHg 23%
    14:00 +7°C° 0 mm 3 mps 583 mmHg 20%
    15:00 +7°C° 0 mm 3 mps 583 mmHg 20%
    16:00 +7°C° 0 mm 3 mps 583 mmHg 20%
    17:00 +7°C° 0 mm 3 mps 583 mmHg 20%
    18:00 +4°C° 0 mm 3 mps 583 mmHg 22%
    19:00 +3°C° 0 mm 3 mps 583 mmHg 25%
    20:00 +2°C° 0 mm 3 mps 583 mmHg 27%
    21:00 +2°C° 0 mm 2 mps 583 mmHg 28%
    22:00 +2°C° 0 mm 2 mps 583 mmHg 29%
    23:00 +1°C° 0 mm 2 mps 583 mmHg 31%

    Day after tomorrow, 26 January, Friday

    Time Temperature Precipitation Wind Pressure Humidity
    00:00 +1°C° 0 mm 2 mps 583 mmHg 31%
    01:00 -1°C° 0 mm 2 mps 583 mmHg 31%
    02:00 -1°C° 0 mm 2 mps 582 mmHg 32%
    03:00 -2°C° 0 mm 2 mps 582 mmHg 32%
    04:00 -2°C° 0 mm 2 mps 582 mmHg 32%
    05:00 -2°C° 0 mm 2 mps 582 mmHg 32%
    06:00 -2°C° 0 mm 2 mps 582 mmHg 31%
    07:00 -2°C° 0 mm 2 mps 582 mmHg 31%
    08:00 -2°C° 0 mm 2 mps 583 mmHg 30%
    09:00 -1°C° 0 mm 2 mps 583 mmHg 26%
    10:00 +2°C° 0 mm 2 mps 584 mmHg 23%
    11:00 +4°C° 0 mm 2 mps 584 mmHg 19%
    12:00 +5°C° 0 mm 2 mps 584 mmHg 18%
    13:00 +5°C° 0 mm 2 mps 584 mmHg 16%
    14:00 +6°C° 0 mm 2 mps 583 mmHg 15%
    15:00 +6°C° 0 mm 2 mps 583 mmHg 16%
    16:00 +6°C° 0 mm 2 mps 583 mmHg 17%
    17:00 +6°C° 0 mm 2 mps 583 mmHg 18%
    18:00 +4°C° 0 mm 2 mps 582 mmHg 20%
    19:00 +3°C° 0 mm 2 mps 582 mmHg 23%
    20:00 +3°C° 0 mm 1 mps 582 mmHg 26%
    21:00 +2°C° 0 mm 1 mps 582 mmHg 28%
    22:00 +2°C° 0 mm 1 mps 582 mmHg 30%
    23:00 +2°C° 0 mm 1 mps 582 mmHg 33%

    27 January, Saturday

    Time Temperature Precipitation Wind Pressure Humidity
    00:00 +1°C° 0 mm 1 mps 582 mmHg 35%
    01:00 +1°C° 0 mm 1 mps 581 mmHg 37%
    02:00 0°C° 0 mm 1 mps 581 mmHg 40%
    03:00 0°C° 0 mm 1 mps 581 mmHg 39%
    04:00 0°C° 0 mm 1 mps 581 mmHg 39%
    05:00 -1°C° 0 mm 1 mps 581 mmHg 38%
    06:00 -1°C° 0 mm 1 mps 581 mmHg 37%
    07:00 -1°C° 0 mm 1 mps 581 mmHg 35%
    08:00 -1°C° 0 mm 1 mps 581 mmHg 34%
    09:00 +1°C° 0 mm 1 mps 582 mmHg 30%
    10:00 +2°C° 0 mm 2 mps 582 mmHg 26%
    11:00 +4°C° 0 mm 2 mps 583 mmHg 22%
    12:00 +5°C° 0 mm 2 mps 583 mmHg 21%
    13:00 +5°C° 0 mm 3 mps 582 mmHg 20%
    14:00 +7°C° 0 mm 3 mps 582 mmHg 20%
    15:00 +7°C° 0 mm 3 mps 582 mmHg 20%
    16:00 +7°C° 0 mm 3 mps 582 mmHg 21%
    17:00 +7°C° 0 mm 3 mps 582 mmHg 22%
    18:00 +5°C° 0 mm 2 mps 582 mmHg 25%
    19:00 +4°C° 0 mm 2 mps 582 mmHg 27%
    20:00 +3°C° 0 mm 2 mps 582 mmHg 30%
    21:00 +2°C° 0 mm 2 mps 582 mmHg 32%
    22:00 +2°C° 0 mm 2 mps 582 mmHg 33%
    23:00 +1°C° 0 mm 2 mps 582 mmHg 35%

    28 January, Sunday

    Time Temperature Precipitation Wind Pressure Humidity
    00:00 +2°C° 0 mm 1 mps 581 mmHg 36%
    01:00 +1°C° 0 mm 1 mps 581 mmHg 37%
    02:00 +1°C° 0 mm 1 mps 581 mmHg 39%
    03:00 +1°C° 0 mm 1 mps 581 mmHg 39%
    04:00 0°C° 0 mm 1 mps 580 mmHg 40%
    05:00 0°C° 0 mm 1 mps 580 mmHg 40%
    06:00 0°C° 0 mm 1 mps 580 mmHg 40%
    07:00 0°C° 0 mm 1 mps 581 mmHg 40%
    08:00 0°C° 0 mm 1 mps 581 mmHg 39%
    09:00 +2°C° 0 mm 1 mps 582 mmHg 35%
    10:00 +3°C° 0 mm 2 mps 583 mmHg 31%
    11:00 +5°C° 0 mm 2 mps 583 mmHg 26%
    12:00 +5°C° 0 mm 3 mps 583 mmHg 25%
    13:00 +6°C° 0 mm 4 mps 583 mmHg 23%
    14:00 +7°C° 0 mm 5 mps 583 mmHg 22%
    15:00 +7°C° 0 mm 5 mps 583 mmHg 22%
    16:00 +7°C° 0 mm 4 mps 582 mmHg 23%
    17:00 +7°C° 0 mm 4 mps 582 mmHg 24%
    18:00 +6°C° 0 mm 4 mps 582 mmHg 27%
    19:00 +4°C° 0 mm 4 mps 582 mmHg 30%
    20:00 +3°C° 0 mm 4 mps 582 mmHg 34%
    21:00 +3°C° 0.3 mm 4 mps 582 mmHg 41%
    22:00 +1°C° 0.3 mm 4 mps 582 mmHg 49%
    23:00 0°C° 0.3 mm 5 mps 582 mmHg 57%

    29 January, Monday

    Time Temperature Precipitation Wind Pressure Humidity
    00:00 -1°C° 0.7 mm 4 mps 581 mmHg 66%
    01:00 0°C° 0.7 mm 3 mps 581 mmHg 75%
    02:00 -1°C° 0.7 mm 3 mps 580 mmHg 83%
    03:00 -1°C° 1.3 mm 3 mps 580 mmHg 86%
    04:00 -2°C° 1.3 mm 3 mps 580 mmHg 89%
    05:00 -2°C° 1.3 mm 3 mps 580 mmHg 92%
    06:00 -2°C° 0.4 mm 3 mps 580 mmHg 92%
    07:00 -2°C° 0.4 mm 3 mps 580 mmHg 91%
    08:00 -3°C° 0.4 mm 4 mps 580 mmHg 91%
    09:00 -3°C° 0.7 mm 4 mps 581 mmHg 89%
    10:00 -2°C° 0.7 mm 4 mps 581 mmHg 86%
    11:00 -1°C° 0.7 mm 4 mps 582 mmHg 84%
    12:00 -1°C° 0.2 mm 5 mps 581 mmHg 84%
    13:00 -1°C° 0.2 mm 5 mps 581 mmHg 84%
    14:00 0°C° 0.2 mm 5 mps 581 mmHg 84%
    15:00 -1°C° 0.9 mm 5 mps 581 mmHg 86%
    16:00 -1°C° 0.9 mm 5 mps 580 mmHg 88%
    17:00 -2°C° 0.9 mm 5 mps 580 mmHg 90%
    18:00 -2°C° 1.2 mm 4 mps 580 mmHg 91%
    19:00 -2°C° 1.2 mm 4 mps 581 mmHg 92%
    20:00 -2°C° 1.2 mm 3 mps 581 mmHg 94%
    21:00 -2°C° 1.4 mm 3 mps 581 mmHg 94%
    22:00 -2°C° 1.4 mm 3 mps 582 mmHg 94%
    23:00 -2°C° 1.4 mm 3 mps 582 mmHg 95%
    Show more